ACA612 CYYZ-CYHZ

Flight info

Callsign ACA612
Flight time 1h 45m
Altitude 35000
Route DEDKI5 OLABA Q951 TALNO Q929 TOXAL DCT EBONY FUNDY5
Aircraft B38M/M-VGDW/C

Departure

Time 2026-05-06 22:42
Airport Toronto Pearson International Airport (CYYZ)

Arrival

Time 2026-05-07 00:27
Airport Halifax / Stanfield International Airport (CYHZ)
Time Latitude Longitude Altitude Speed Heading
2026-05-06 22:29 43.68431 -79.63526 571 ft 0 kts 314°
2026-05-06 22:30 43.68432 -79.63528 572 ft 1 kts 314°
2026-05-06 22:30 43.68443 -79.63544 572 ft 5 kts 314°
2026-05-06 22:30 43.68472 -79.63583 571 ft 6 kts 319°
2026-05-06 22:30 43.68506 -79.63625 570 ft 7 kts 316°
2026-05-06 22:31 43.68540 -79.63675 572 ft 7 kts 317°
2026-05-06 22:31 43.68570 -79.63711 573 ft 5 kts 322°
2026-05-06 22:31 43.68591 -79.63735 579 ft 3 kts 320°
2026-05-06 22:31 43.68608 -79.63758 574 ft 5 kts 313°
2026-05-06 22:32 43.68648 -79.63813 576 ft 11 kts 318°
2026-05-06 22:32 43.68719 -79.63906 574 ft 17 kts 316°
2026-05-06 22:32 43.68768 -79.64034 574 ft 13 kts 250°
2026-05-06 22:32 43.68720 -79.64103 576 ft 10 kts 230°
2026-05-06 22:33 43.68674 -79.64174 578 ft 10 kts 226°
2026-05-06 22:33 43.68622 -79.64249 573 ft 12 kts 226°
2026-05-06 22:33 43.68559 -79.64340 572 ft 14 kts 226°
2026-05-06 22:33 43.68489 -79.64442 576 ft 14 kts 226°
2026-05-06 22:34 43.68423 -79.64537 578 ft 14 kts 226°
2026-05-06 22:34 43.68356 -79.64636 580 ft 14 kts 226°
2026-05-06 22:34 43.68296 -79.64724 581 ft 12 kts 224°
2026-05-06 22:34 43.68239 -79.64807 580 ft 13 kts 228°
2026-05-06 22:35 43.68171 -79.64902 583 ft 15 kts 226°
2026-05-06 22:35 43.68096 -79.65013 579 ft 17 kts 228°
2026-05-06 22:35 43.68009 -79.65140 579 ft 19 kts 226°
2026-05-06 22:35 43.67915 -79.65276 576 ft 20 kts 226°
2026-05-06 22:36 43.67818 -79.65418 581 ft 20 kts 229°
2026-05-06 22:36 43.67726 -79.65547 577 ft 18 kts 224°
2026-05-06 22:36 43.67642 -79.65673 580 ft 17 kts 228°
2026-05-06 22:36 43.67561 -79.65789 580 ft 17 kts 226°
2026-05-06 22:37 43.67475 -79.65914 580 ft 19 kts 227°
2026-05-06 22:37 43.67385 -79.66044 580 ft 19 kts 226°
2026-05-06 22:37 43.67300 -79.66172 576 ft 13 kts 231°
2026-05-06 22:37 43.67289 -79.66257 579 ft 9 kts 304°
2026-05-06 22:38 43.67341 -79.66320 575 ft 10 kts 326°
2026-05-06 22:38 43.67348 -79.66326 575 ft 0 kts 326°
2026-05-06 22:39 43.67349 -79.66327 573 ft 1 kts 326°
2026-05-06 22:39 43.67360 -79.66337 577 ft 3 kts 325°
2026-05-06 22:39 43.67382 -79.66351 577 ft 4 kts 338°
2026-05-06 22:40 43.67414 -79.66368 576 ft 6 kts 338°
2026-05-06 22:40 43.67449 -79.66363 575 ft 5 kts 31°
2026-05-06 22:40 43.67471 -79.66320 577 ft 5 kts 48°
2026-05-06 22:40 43.67478 -79.66311 575 ft 0 kts 45°
2026-05-06 22:41 43.67970 -79.65604 576 ft 108 kts 46°
2026-05-06 22:41 43.68588 -79.64710 621 ft 145 kts 45°
2026-05-06 22:41 43.69337 -79.63626 866 ft 163 kts 46°
2026-05-06 22:42 43.70081 -79.62381 1238 ft 174 kts 59°
2026-05-06 22:42 43.70334 -79.60745 1746 ft 182 kts 93°
2026-05-06 22:42 43.70017 -79.59019 2132 ft 186 kts 102°
2026-05-06 22:42 43.69710 -79.57330 2454 ft 178 kts 101°
2026-05-06 22:43 43.69458 -79.55688 2718 ft 173 kts 98°
2026-05-06 22:43 43.69221 -79.54074 2992 ft 168 kts 99°
2026-05-06 22:43 43.68972 -79.52504 3224 ft 168 kts 99°
2026-05-06 22:43 43.68735 -79.50923 3442 ft 166 kts 98°
2026-05-06 22:44 43.68501 -79.49404 3732 ft 160 kts 103°
2026-05-06 22:44 43.68244 -79.47932 4066 ft 153 kts 99°
2026-05-06 22:44 43.68021 -79.46509 4329 ft 149 kts 99°
2026-05-06 22:44 43.67804 -79.45143 4534 ft 148 kts 100°
2026-05-06 22:45 43.67589 -79.43739 4687 ft 155 kts 99°
2026-05-06 22:45 43.67366 -79.42227 4753 ft 166 kts 102°
2026-05-06 22:45 43.67146 -79.40604 4819 ft 179 kts 99°
2026-05-06 22:45 43.66917 -79.38849 4918 ft 192 kts 100°
2026-05-06 22:46 43.66674 -79.36986 5012 ft 202 kts 100°
2026-05-06 22:46 43.66426 -79.35036 5105 ft 210 kts 100°
2026-05-06 22:46 43.66171 -79.33013 5198 ft 216 kts 100°
2026-05-06 22:46 43.65893 -79.30937 5277 ft 226 kts 101°
2026-05-06 22:47 43.65596 -79.28772 5361 ft 238 kts 101°
2026-05-06 22:47 43.65326 -79.26402 5377 ft 267 kts 87°
2026-05-06 22:47 43.65738 -79.23768 5474 ft 296 kts 82°
2026-05-06 22:47 43.65601 -79.20961 5661 ft 290 kts 96°
2026-05-06 22:48 43.65422 -79.18208 5846 ft 285 kts 94°
2026-05-06 22:48 43.65313 -79.15504 6030 ft 279 kts 92°
2026-05-06 22:48 43.65224 -79.12784 6359 ft 290 kts 91°
2026-05-06 22:48 43.65217 -79.09948 6690 ft 294 kts 89°
2026-05-06 22:49 43.65255 -79.07126 7046 ft 296 kts 89°
2026-05-06 22:49 43.65346 -79.04270 7403 ft 299 kts 86°
2026-05-06 22:49 43.65538 -79.01398 7764 ft 302 kts 85°
2026-05-06 22:49 43.65812 -78.98504 8119 ft 305 kts 82°
2026-05-06 22:50 43.66129 -78.95594 8483 ft 308 kts 83°
2026-05-06 22:50 43.66418 -78.92686 8847 ft 311 kts 83°
2026-05-06 22:50 43.66741 -78.89672 9231 ft 314 kts 82°
2026-05-06 22:50 43.67082 -78.86714 9605 ft 317 kts 82°
2026-05-06 22:51 43.67437 -78.83685 9967 ft 321 kts 81°
2026-05-06 22:51 43.67799 -78.80631 10312 ft 324 kts 81°
2026-05-06 22:51 43.68182 -78.77555 10657 ft 326 kts 81°
2026-05-06 22:51 43.68583 -78.74418 11015 ft 337 kts 81°
2026-05-06 22:52 43.69009 -78.71180 11447 ft 347 kts 77°
2026-05-06 22:52 43.69729 -78.67955 11864 ft 355 kts 69°
2026-05-06 22:52 43.70663 -78.64746 12284 ft 364 kts 66°
2026-05-06 22:52 43.71714 -78.61518 12715 ft 372 kts 64°
2026-05-06 22:53 43.72827 -78.58234 13156 ft 380 kts 64°
2026-05-06 22:53 43.73914 -78.54934 13587 ft 384 kts 65°
2026-05-06 22:53 43.75011 -78.51548 13991 ft 388 kts 65°
2026-05-06 22:53 43.76117 -78.48128 14379 ft 391 kts 65°
2026-05-06 22:54 43.77240 -78.44671 14773 ft 394 kts 65°
2026-05-06 22:54 43.78356 -78.41181 15158 ft 398 kts 66°
2026-05-06 22:54 43.79475 -78.37657 15552 ft 401 kts 66°
2026-05-06 22:54 43.80603 -78.34104 15953 ft 405 kts 66°
2026-05-06 22:55 43.81724 -78.30512 16356 ft 408 kts 67°
2026-05-06 22:55 43.82837 -78.26883 16799 ft 412 kts 68°
2026-05-06 22:55 43.83573 -78.24448 17067 ft 415 kts 68°
2026-05-06 22:55 43.85077 -78.19482 17643 ft 420 kts 68°
2026-05-06 22:56 43.85830 -78.16998 17934 ft 422 kts 68°
2026-05-06 22:56 43.87356 -78.12004 18461 ft 427 kts 68°
2026-05-06 22:56 43.88521 -78.08206 18831 ft 429 kts 68°
2026-05-06 22:56 43.89315 -78.05624 19087 ft 431 kts 68°
2026-05-06 22:57 43.90491 -78.01791 19468 ft 433 kts 68°
2026-05-06 22:57 43.91672 -77.97941 19858 ft 435 kts 68°
2026-05-06 22:57 43.92842 -77.94118 20221 ft 436 kts 68°
2026-05-06 22:57 43.94027 -77.90238 20618 ft 437 kts 68°
2026-05-06 22:58 43.95195 -77.86335 21015 ft 439 kts 69°
2026-05-06 22:58 43.96335 -77.82388 21397 ft 442 kts 69°
2026-05-06 22:58 43.97492 -77.78419 21795 ft 444 kts 69°
2026-05-06 22:58 43.98676 -77.74436 22185 ft 447 kts 68°
2026-05-06 22:59 43.99862 -77.70431 22582 ft 449 kts 69°
2026-05-06 22:59 44.01044 -77.66385 22991 ft 452 kts 69°
2026-05-06 22:59 44.02209 -77.62386 23364 ft 454 kts 69°
2026-05-06 22:59 44.03405 -77.58299 23687 ft 457 kts 68°
2026-05-06 23:00 44.04601 -77.54217 24062 ft 456 kts 68°
2026-05-06 23:00 44.05790 -77.50136 24328 ft 456 kts 68°
2026-05-06 23:00 44.06983 -77.46030 24662 ft 458 kts 68°
2026-05-06 23:00 44.08210 -77.41919 24989 ft 459 kts 63°
2026-05-06 23:01 44.09754 -77.38026 25352 ft 460 kts 62°
2026-05-06 23:01 44.11102 -77.33985 25668 ft 462 kts 67°
2026-05-06 23:01 44.12303 -77.29829 25972 ft 464 kts 69°
2026-05-06 23:01 44.13557 -77.25684 26271 ft 466 kts 65°
2026-05-06 23:02 44.14965 -77.21613 26571 ft 467 kts 63°
2026-05-06 23:02 44.16362 -77.17595 26868 ft 467 kts 65°
2026-05-06 23:02 44.17693 -77.13460 27182 ft 468 kts 66°
2026-05-06 23:02 44.19004 -77.09301 27496 ft 469 kts 66°
2026-05-06 23:03 44.20362 -77.05158 27814 ft 470 kts 65°
2026-05-06 23:03 44.21745 -77.01017 28144 ft 471 kts 65°
2026-05-06 23:03 44.23101 -76.96860 28464 ft 471 kts 65°
2026-05-06 23:03 44.24441 -76.92685 28804 ft 472 kts 66°
2026-05-06 23:04 44.25796 -76.88502 29148 ft 472 kts 66°
2026-05-06 23:04 44.27157 -76.84334 29431 ft 472 kts 66°
2026-05-06 23:04 44.28511 -76.80159 29773 ft 472 kts 67°
2026-05-06 23:04 44.29857 -76.75984 30104 ft 471 kts 67°
2026-05-06 23:05 44.31199 -76.71816 30400 ft 470 kts 67°
2026-05-06 23:05 44.32518 -76.67731 30680 ft 466 kts 67°
2026-05-06 23:05 44.33856 -76.63576 30910 ft 468 kts 67°
2026-05-06 23:05 44.35188 -76.59424 31142 ft 469 kts 67°
2026-05-06 23:06 44.36526 -76.55250 31352 ft 470 kts 66°
2026-05-06 23:06 44.37867 -76.51063 31546 ft 473 kts 66°
2026-05-06 23:06 44.39198 -76.46903 31767 ft 475 kts 67°
2026-05-06 23:06 44.40562 -76.42627 31967 ft 476 kts 67°
2026-05-06 23:07 44.41894 -76.38443 32133 ft 478 kts 67°
2026-05-06 23:07 44.43251 -76.34177 32339 ft 480 kts 66°
2026-05-06 23:07 44.44611 -76.29900 32549 ft 481 kts 66°
2026-05-06 23:07 44.45971 -76.25611 32757 ft 483 kts 66°
2026-05-06 23:08 44.47336 -76.21295 32964 ft 484 kts 66°
2026-05-06 23:08 44.48700 -76.16978 33183 ft 485 kts 66°
2026-05-06 23:08 44.50065 -76.12644 33388 ft 486 kts 66°
2026-05-06 23:08 44.51432 -76.08293 33608 ft 488 kts 66°
2026-05-06 23:09 44.52800 -76.03934 33836 ft 489 kts 67°
2026-05-06 23:09 44.54170 -75.99565 34014 ft 490 kts 66°
2026-05-06 23:09 44.55539 -75.95188 34200 ft 491 kts 66°
2026-05-06 23:09 44.56910 -75.90801 34352 ft 492 kts 65°
2026-05-06 23:10 44.58268 -75.86444 34524 ft 494 kts 65°
2026-05-06 23:10 44.59645 -75.82019 34696 ft 495 kts 65°
2026-05-06 23:10 44.61024 -75.77583 34879 ft 497 kts 65°
2026-05-06 23:11 44.63822 -75.68557 34878 ft 510 kts 66°
2026-05-06 23:11 44.66484 -75.59253 34909 ft 523 kts 69°
2026-05-06 23:12 44.69167 -75.49771 34865 ft 520 kts 67°
2026-05-06 23:12 44.71893 -75.40350 34862 ft 519 kts 68°
2026-05-06 23:13 44.74632 -75.30940 34878 ft 519 kts 68°
2026-05-06 23:13 44.77351 -75.21529 34885 ft 519 kts 68°
2026-05-06 23:14 44.80048 -75.12165 34901 ft 519 kts 68°
2026-05-06 23:14 44.82752 -75.02748 34886 ft 518 kts 68°
2026-05-06 23:15 44.85446 -74.93318 34882 ft 518 kts 68°
2026-05-06 23:15 44.88133 -74.83889 34881 ft 518 kts 68°
2026-05-06 23:16 44.90813 -74.74441 34895 ft 518 kts 68°
2026-05-06 23:16 44.93067 -74.64784 34915 ft 518 kts 74°
2026-05-06 23:17 44.95176 -74.55093 34867 ft 515 kts 74°
2026-05-06 23:17 44.97267 -74.45466 34865 ft 516 kts 74°
2026-05-06 23:18 44.99251 -74.35718 34867 ft 514 kts 83°
2026-05-06 23:18 44.99993 -74.25685 34865 ft 512 kts 88°
2026-05-06 23:19 45.00629 -74.15693 34864 ft 513 kts 87°
2026-05-06 23:19 45.01281 -74.05661 34868 ft 513 kts 88°
2026-05-06 23:20 45.01908 -73.95606 34861 ft 513 kts 88°
2026-05-06 23:20 45.02535 -73.85574 34860 ft 511 kts 88°
2026-05-06 23:21 45.03144 -73.75596 34858 ft 508 kts 88°
2026-05-06 23:21 45.03743 -73.65698 34860 ft 509 kts 88°
2026-05-06 23:22 45.04337 -73.55704 34856 ft 509 kts 88°
2026-05-06 23:22 45.04922 -73.45737 34865 ft 509 kts 88°
2026-05-06 23:23 45.05498 -73.35752 34861 ft 509 kts 88°
2026-05-06 23:23 45.06063 -73.25819 34855 ft 511 kts 88°
2026-05-06 23:24 45.06624 -73.15786 34854 ft 511 kts 88°
2026-05-06 23:24 45.07177 -73.05745 34857 ft 512 kts 88°
2026-05-06 23:25 45.07722 -72.95698 34859 ft 512 kts 88°
2026-05-06 23:25 45.08258 -72.85659 34858 ft 510 kts 89°
2026-05-06 23:26 45.08779 -72.75704 34855 ft 509 kts 89°
2026-05-06 23:26 45.09294 -72.65719 34852 ft 509 kts 89°
2026-05-06 23:27 45.09800 -72.55718 34847 ft 509 kts 89°
2026-05-06 23:27 45.10299 -72.45716 34838 ft 508 kts 89°
2026-05-06 23:28 45.10787 -72.35723 34842 ft 509 kts 89°
2026-05-06 23:28 45.11267 -72.25724 34849 ft 509 kts 89°
2026-05-06 23:29 45.11738 -72.15731 34840 ft 508 kts 89°
2026-05-06 23:29 45.12197 -72.05814 34804 ft 508 kts 89°
2026-05-06 23:30 45.12651 -71.95809 34855 ft 509 kts 89°
2026-05-06 23:30 45.13097 -71.85809 34841 ft 507 kts 89°
2026-05-06 23:31 45.13531 -71.75839 34841 ft 507 kts 89°
2026-05-06 23:31 45.13959 -71.65858 34845 ft 507 kts 90°
2026-05-06 23:32 45.14206 -71.55963 34850 ft 503 kts 97°
2026-05-06 23:32 45.13844 -71.46045 34849 ft 503 kts 97°
2026-05-06 23:33 45.13491 -71.36141 34852 ft 503 kts 97°
2026-05-06 23:33 45.13119 -71.26244 34849 ft 503 kts 97°
2026-05-06 23:34 45.12747 -71.16412 34829 ft 504 kts 97°
2026-05-06 23:34 45.12361 -71.06487 34827 ft 503 kts 97°
2026-05-06 23:35 45.11964 -70.96573 34825 ft 504 kts 97°
2026-05-06 23:35 45.11563 -70.86654 34810 ft 504 kts 97°
2026-05-06 23:36 45.11150 -70.76754 34804 ft 503 kts 97°
2026-05-06 23:36 45.10735 -70.66926 34804 ft 503 kts 97°
2026-05-06 23:37 45.10307 -70.57048 34788 ft 503 kts 97°
2026-05-06 23:37 45.09871 -70.47167 34795 ft 503 kts 97°
2026-05-06 23:38 45.09427 -70.37302 34772 ft 500 kts 97°
2026-05-06 23:38 45.08975 -70.27465 34769 ft 500 kts 97°
2026-05-06 23:39 45.08517 -70.17652 34774 ft 500 kts 97°
2026-05-06 23:39 45.08052 -70.07884 34770 ft 500 kts 98°
2026-05-06 23:40 45.07577 -69.98076 34765 ft 499 kts 98°
2026-05-06 23:40 45.07093 -69.88275 34766 ft 499 kts 98°
2026-05-06 23:41 45.06601 -69.78463 34764 ft 500 kts 98°
2026-05-06 23:41 45.06104 -69.68724 34764 ft 500 kts 98°
2026-05-06 23:42 45.05595 -69.58933 34752 ft 499 kts 98°
2026-05-06 23:42 45.05078 -69.49146 34749 ft 499 kts 98°
2026-05-06 23:43 45.04555 -69.39372 34752 ft 498 kts 98°
2026-05-06 23:43 45.04021 -69.29591 34753 ft 499 kts 98°
2026-05-06 23:44 45.03481 -69.19821 34748 ft 498 kts 99°
2026-05-06 23:44 45.03026 -69.11721 34762 ft 496 kts 99°
2026-05-06 23:45 45.02475 -69.02034 34768 ft 493 kts 99°
2026-05-06 23:45 45.01915 -68.92376 34767 ft 492 kts 99°
2026-05-06 23:46 45.01349 -68.82720 34776 ft 495 kts 100°
2026-05-06 23:46 45.00773 -68.73035 34776 ft 495 kts 100°
2026-05-06 23:47 45.00192 -68.63405 34783 ft 495 kts 100°
2026-05-06 23:47 44.99598 -68.53704 34799 ft 495 kts 100°
2026-05-06 23:48 44.98997 -68.44013 34786 ft 493 kts 100°
2026-05-06 23:48 44.98389 -68.34361 34797 ft 493 kts 100°
2026-05-06 23:49 44.97773 -68.24706 34811 ft 493 kts 101°
2026-05-06 23:49 44.97149 -68.15048 34813 ft 493 kts 101°
2026-05-06 23:50 44.96521 -68.05454 34825 ft 494 kts 101°
2026-05-06 23:50 44.95556 -67.90968 34839 ft 493 kts 101°
2026-05-06 23:51 44.94903 -67.81317 34839 ft 494 kts 101°
2026-05-06 23:51 44.94243 -67.71665 34856 ft 494 kts 101°
2026-05-06 23:52 44.93570 -67.61994 34870 ft 495 kts 101°
2026-05-06 23:52 44.92901 -67.52414 34881 ft 491 kts 102°
2026-05-06 23:53 44.92217 -67.42831 34887 ft 490 kts 102°
2026-05-06 23:53 44.91529 -67.33255 34887 ft 490 kts 102°
2026-05-06 23:54 44.90830 -67.23667 34877 ft 491 kts 102°
2026-05-06 23:54 44.90238 -67.14175 34891 ft 496 kts 95°
2026-05-06 23:55 44.90241 -67.04376 34888 ft 497 kts 95°
2026-05-06 23:55 44.90220 -66.94621 34894 ft 497 kts 96°
2026-05-06 23:56 44.90203 -66.84940 34887 ft 495 kts 96°
2026-05-06 23:56 44.90169 -66.75240 34889 ft 494 kts 96°
2026-05-06 23:57 44.90132 -66.65548 34898 ft 495 kts 96°
2026-05-06 23:57 44.90085 -66.55840 34905 ft 494 kts 96°
2026-05-06 23:58 44.90028 -66.46097 34659 ft 498 kts 96°
2026-05-06 23:58 44.89998 -66.41211 34089 ft 499 kts 97°
2026-05-06 23:58 44.89966 -66.36311 33359 ft 500 kts 97°
2026-05-06 23:59 44.89930 -66.31387 32584 ft 501 kts 97°
2026-05-06 23:59 44.89893 -66.26469 31944 ft 500 kts 97°
2026-05-06 23:59 44.89855 -66.21582 31388 ft 496 kts 97°
2026-05-06 23:59 44.89815 -66.16741 30908 ft 491 kts 97°
2026-05-07 00:00 44.89772 -66.11945 30434 ft 487 kts 97°
2026-05-07 00:00 44.89728 -66.07237 29945 ft 483 kts 97°
2026-05-07 00:00 44.89682 -66.02529 29392 ft 478 kts 97°
2026-05-07 00:00 44.89635 -65.97836 28851 ft 475 kts 97°
2026-05-07 00:01 44.89586 -65.93206 28314 ft 471 kts 97°
2026-05-07 00:01 44.89536 -65.88605 27787 ft 467 kts 97°
2026-05-07 00:01 44.89484 -65.84035 27278 ft 464 kts 97°
2026-05-07 00:01 44.89431 -65.79503 26784 ft 461 kts 97°
2026-05-07 00:02 44.89377 -65.75048 26277 ft 458 kts 97°
2026-05-07 00:02 44.89321 -65.70574 25788 ft 455 kts 96°
2026-05-07 00:02 44.89263 -65.66128 25288 ft 452 kts 96°
2026-05-07 00:02 44.89206 -65.61709 24811 ft 450 kts 96°
2026-05-07 00:03 44.89145 -65.57311 24416 ft 449 kts 96°
2026-05-07 00:03 44.89082 -65.52914 24189 ft 448 kts 96°
2026-05-07 00:03 44.89019 -65.48526 23967 ft 447 kts 96°
2026-05-07 00:03 44.89004 -65.44145 23764 ft 444 kts 94°
2026-05-07 00:04 44.89034 -65.39800 23325 ft 442 kts 93°
2026-05-07 00:04 44.89087 -65.35472 22780 ft 439 kts 93°
2026-05-07 00:04 44.89161 -65.31178 22262 ft 436 kts 92°
2026-05-07 00:04 44.89257 -65.26918 21741 ft 434 kts 92°
2026-05-07 00:05 44.89372 -65.22730 21187 ft 432 kts 92°
2026-05-07 00:05 44.89509 -65.18507 20680 ft 429 kts 94°
2026-05-07 00:05 44.89532 -65.14317 20204 ft 425 kts 96°
2026-05-07 00:05 44.89520 -65.10162 19730 ft 423 kts 96°
2026-05-07 00:06 44.89510 -65.06015 19264 ft 421 kts 96°
2026-05-07 00:06 44.89502 -65.01897 18807 ft 418 kts 97°
2026-05-07 00:06 44.89496 -64.97807 18367 ft 416 kts 97°
2026-05-07 00:06 44.89491 -64.93738 17883 ft 413 kts 97°
2026-05-07 00:07 44.89488 -64.89701 17418 ft 409 kts 97°
2026-05-07 00:07 44.89488 -64.85705 16968 ft 405 kts 97°
2026-05-07 00:07 44.89492 -64.81762 16527 ft 400 kts 97°
2026-05-07 00:07 44.89499 -64.77914 16112 ft 395 kts 97°
2026-05-07 00:08 44.89508 -64.74062 15683 ft 391 kts 97°
2026-05-07 00:08 44.89519 -64.70250 15250 ft 387 kts 97°
2026-05-07 00:08 44.89532 -64.66475 14816 ft 384 kts 97°
2026-05-07 00:08 44.89547 -64.62728 14397 ft 380 kts 97°
2026-05-07 00:09 44.89562 -64.59010 13986 ft 377 kts 97°
2026-05-07 00:09 44.89579 -64.55327 13540 ft 374 kts 97°
2026-05-07 00:09 44.89586 -64.51667 13062 ft 371 kts 98°
2026-05-07 00:09 44.89530 -64.48050 12609 ft 367 kts 99°
2026-05-07 00:10 44.89341 -64.44487 12154 ft 360 kts 105°
2026-05-07 00:10 44.88977 -64.41031 11707 ft 353 kts 107°
2026-05-07 00:10 44.88554 -64.37709 11466 ft 344 kts 108°
2026-05-07 00:10 44.88118 -64.34425 11249 ft 336 kts 109°
2026-05-07 00:11 44.87691 -64.31214 11026 ft 329 kts 109°
2026-05-07 00:11 44.87281 -64.28073 10872 ft 321 kts 109°
2026-05-07 00:11 44.86891 -64.25016 10674 ft 315 kts 109°
2026-05-07 00:11 44.86510 -64.21978 10428 ft 313 kts 109°
2026-05-07 00:12 44.86250 -64.18922 10192 ft 319 kts 97°
2026-05-07 00:12 44.86529 -64.15782 9954 ft 326 kts 85°
2026-05-07 00:12 44.87089 -64.12674 9707 ft 328 kts 80°
2026-05-07 00:12 44.87710 -64.09628 9447 ft 326 kts 81°
2026-05-07 00:13 44.88332 -64.06550 9185 ft 325 kts 81°
2026-05-07 00:13 44.88949 -64.03493 8928 ft 324 kts 81°
2026-05-07 00:13 44.89495 -64.00432 8672 ft 320 kts 85°
2026-05-07 00:13 44.89915 -63.97370 8407 ft 316 kts 85°
2026-05-07 00:14 44.90370 -63.94336 8154 ft 315 kts 84°
2026-05-07 00:14 44.90852 -63.91321 7875 ft 315 kts 84°
2026-05-07 00:14 44.91336 -63.88344 7579 ft 314 kts 84°
2026-05-07 00:14 44.91828 -63.85346 7284 ft 312 kts 83°
2026-05-07 00:15 44.92317 -63.82370 6997 ft 311 kts 84°
2026-05-07 00:15 44.92796 -63.79402 6719 ft 309 kts 84°
2026-05-07 00:15 44.93254 -63.76449 6426 ft 308 kts 84°
2026-05-07 00:15 44.93710 -63.73487 6129 ft 307 kts 84°
2026-05-07 00:16 44.94159 -63.70544 5824 ft 306 kts 85°
2026-05-07 00:16 44.94609 -63.67614 5522 ft 304 kts 84°
2026-05-07 00:16 44.95061 -63.64697 5221 ft 304 kts 84°
2026-05-07 00:16 44.95515 -63.61789 4929 ft 303 kts 84°
2026-05-07 00:17 44.95970 -63.58882 4628 ft 303 kts 84°
2026-05-07 00:17 44.96430 -63.55982 4311 ft 304 kts 79°
2026-05-07 00:17 44.97519 -63.53401 4101 ft 311 kts 45°
2026-05-07 00:17 44.99265 -63.51736 3998 ft 302 kts 24°
2026-05-07 00:18 45.01097 -63.50615 3905 ft 273 kts 19°
2026-05-07 00:18 45.02817 -63.49644 3781 ft 259 kts 18°
2026-05-07 00:18 45.04459 -63.48715 3641 ft 251 kts 18°
2026-05-07 00:18 45.05991 -63.47575 3498 ft 249 kts 46°
2026-05-07 00:19 45.06965 -63.45608 3380 ft 240 kts 81°
2026-05-07 00:19 45.06999 -63.43398 3293 ft 218 kts 112°
2026-05-07 00:19 45.06522 -63.41477 3193 ft 191 kts 136°
2026-05-07 00:19 45.05820 -63.40069 3020 ft 161 kts 142°
2026-05-07 00:20 45.05145 -63.38942 2996 ft 146 kts 151°
2026-05-07 00:20 45.04378 -63.38106 2980 ft 126 kts 173°
2026-05-07 00:20 45.03542 -63.37816 3003 ft 120 kts 188°
2026-05-07 00:20 45.02809 -63.37979 3287 ft 101 kts 200°
2026-05-07 00:21 45.02107 -63.38199 3312 ft 110 kts 198°
2026-05-07 00:21 45.01372 -63.38474 3342 ft 97 kts 204°
2026-05-07 00:21 45.00804 -63.38833 2958 ft 90 kts 211°
2026-05-07 00:21 45.00198 -63.39330 2900 ft 108 kts 212°
2026-05-07 00:22 44.99563 -63.39868 2850 ft 98 kts 213°
2026-05-07 00:22 44.98994 -63.40416 2503 ft 101 kts 216°
2026-05-07 00:22 44.98423 -63.41010 2247 ft 102 kts 215°
2026-05-07 00:22 44.97842 -63.41557 2119 ft 99 kts 215°
2026-05-07 00:23 44.97282 -63.42114 1988 ft 97 kts 214°
2026-05-07 00:23 44.96728 -63.42668 1899 ft 98 kts 216°
2026-05-07 00:23 44.96178 -63.43246 1855 ft 97 kts 215°
2026-05-07 00:23 44.95616 -63.43819 1845 ft 105 kts 216°
2026-05-07 00:24 44.95016 -63.44459 1887 ft 109 kts 216°
2026-05-07 00:24 44.94458 -63.45088 1898 ft 100 kts 214°
2026-05-07 00:24 44.93863 -63.45607 1755 ft 101 kts 212°
2026-05-07 00:24 44.93246 -63.46147 1550 ft 107 kts 213°
2026-05-07 00:25 44.92624 -63.46797 1321 ft 112 kts 215°
2026-05-07 00:25 44.92000 -63.47401 1135 ft 109 kts 214°
2026-05-07 00:25 44.91383 -63.48030 953 ft 108 kts 213°
2026-05-07 00:25 44.90735 -63.48555 875 ft 109 kts 213°
2026-05-07 00:26 44.90119 -63.49247 812 ft 116 kts 213°
2026-05-07 00:26 44.89426 -63.49903 715 ft 123 kts 215°
2026-05-07 00:26 44.88723 -63.50604 488 ft 118 kts 214°
2026-05-07 00:26 44.88142 -63.51169 456 ft 84 kts 213°
2026-05-07 00:27 44.87784 -63.51529 462 ft 47 kts 216°
2026-05-07 00:27 44.87561 -63.51734 459 ft 31 kts 216°
2026-05-07 00:27 44.87449 -63.51941 460 ft 23 kts 258°
2026-05-07 00:27 44.87462 -63.52071 459 ft 0 kts 304°
2026-05-07 00:30 44.87466 -63.52080 460 ft 2 kts 304°
2026-05-07 00:30 44.87479 -63.52106 461 ft 4 kts 307°
2026-05-07 00:30 44.87505 -63.52121 461 ft 4 kts
2026-05-07 00:30 44.87534 -63.52099 461 ft 6 kts 36°
2026-05-07 00:31 44.87570 -63.52061 460 ft 7 kts 38°
2026-05-07 00:31 44.87616 -63.52018 461 ft 9 kts 34°
2026-05-07 00:31 44.87671 -63.51965 461 ft 11 kts 34°
2026-05-07 00:31 44.87737 -63.51899 460 ft 12 kts 34°
2026-05-07 00:32 44.87812 -63.51825 460 ft 14 kts 35°
2026-05-07 00:32 44.87898 -63.51738 460 ft 16 kts 38°
2026-05-07 00:32 44.87991 -63.51645 460 ft 17 kts 36°
2026-05-07 00:32 44.88092 -63.51543 460 ft 18 kts 33°
2026-05-07 00:33 44.88161 -63.51480 459 ft 18 kts 35°
2026-05-07 00:33 44.88264 -63.51375 459 ft 16 kts 39°
2026-05-07 00:33 44.88292 -63.51351 459 ft 0 kts 22°
2026-05-07 00:33 44.88294 -63.51349 459 ft 1 kts 25°
2026-05-07 00:34 44.88321 -63.51324 459 ft 9 kts 35°
2026-05-07 00:34 44.88370 -63.51272 459 ft 16 kts 37°
2026-05-07 00:34 44.88456 -63.51202 458 ft 6 kts
2026-05-07 00:34 44.88498 -63.51217 458 ft 7 kts 346°
2026-05-07 00:35 44.88541 -63.51235 457 ft 4 kts 317°
2026-05-07 00:35 44.88549 -63.51272 458 ft 5 kts 279°
2026-05-07 00:35 44.88549 -63.51322 458 ft 5 kts 266°
2026-05-07 00:35 44.88547 -63.51359 458 ft 3 kts 265°